Location: Aressy
(43.2833°N, 0.3167°W)
Time: 23:01:55
(UTC+00:00)

COSMO-SKYMED 1 - Visible Passes

Search period start: 05 May 2021 00:00
Search period end: 15 May 2021 00:00
Orbit: 621 x 623 km, 97.9° (Epoch: 05 May)

Date Brightness Start Highest point End Pass type
(mag) Time Alt. Az. Time Alt. Az. Time Alt. Az.
05 May 5.8 04:08:05 10° ESE 04:11:10 19° ENE 04:14:14 10° NNE visible
07 May 6.4 19:43:17 10° NW 19:44:53 12° WNW 19:46:28 10° W visible
09 May 6.3 03:46:01 10° E 03:47:25 11° ENE 03:48:50 10° NE visible
10 May 5.8 04:02:26 10° ESE 04:05:13 17° ENE 04:08:01 10° NNE visible
